Location: Tamazert
(32.6352°N, 5.2072°W)
Time: 16:56:59
(UTC+00:00)

NOSS 3-1 (A) - Pass Details

Date: 22 May 2022
Orbit: 711 x 1501 km, 63.4° (Epoch: 21 May)

Event Time Altitude Azimuth Distance (km) Brightness Sun altitude
Rises 02:37:58 0° 326° (NNW) 4,120 7.0 -27.3°
Reaches altitude 10° 02:40:35 10° 324° (NW) 3,252 6.4 -26.9°
Maximum altitude 02:48:37 69° 244° (WSW) 1,492 4.1 -25.9°
Enters shadow 02:56:54 13° 164° (SSE) 3,396 6.0 -24.7°
